Theta_e
285 287 288 288 289 289 289 288 288 287 287 286 285 285 288 285 283 282 286 284 282 285 284 287 288 288 289 288 289 290 290 292 292 292 293 293 293 292 292 293 293 293 293 292 291 290 289 288 288 287 287 287 286 286 287 287 287 287 287 287 286 286 286 286 285 284 284 284 284 283 283 283 283 283 282 282 282 282 282 283 283 282 282 282 282 282 282
285 285 285 287 288 287 287 287 288 289 288 287 287 288 289 287 286 288 288 284 284 286 285 288 288 288 287 286 287 290 291 293 293 293 293 293 293 293 293 293 294 294 293 292 291 290 288 288 288 288 288 287 287 287 287 287 286 286 286 286 286 286 285 285 284 284 284 283 283 283 282 282 282 282 281 281 281 282 282 282 281 281 281 281 281 281 281
283 284 284 285 287 286 285 285 286 287 287 287 288 289 289 287 287 287 285 283 284 287 288 289 288 286 287 287 287 290 293 293 293 294 294 294 294 294 294 294 294 293 292 291 290 289 289 288 288 288 288 288 288 287 287 286 286 286 286 286 286 285 285 284 284 283 283 282 282 282 281 281 281 281 281 281 281 281 281 280 280 280 280 281 280 280 281
279 282 283 284 285 284 284 284 284 285 285 284 286 285 288 285 285 285 284 283 285 289 287 288 289 288 287 288 288 289 290 293 293 294 294 294 295 295 294 294 293 292 291 290 290 290 289 289 289 289 288 288 287 287 286 286 286 286 286 286 285 285 284 283 283 282 282 281 281 281 281 280 280 279 280 280 280 279 280 279 279 279 280 280 280 280 280
278 282 282 283 283 283 280 283 285 286 287 288 288 288 287 288 289 285 283 285 290 288 289 290 289 289 290 290 289 288 289 292 294 295 295 295 295 296 295 294 293 293 292 292 292 291 290 289 289 289 289 288 287 287 286 286 285 285 285 285 284 284 283 283 282 282 281 281 280 280 279 279 279 279 278 278 278 278 278 278 278 279 279 279 279 279 279
277 279 280 283 282 276 280 288 290 288 287 287 285 286 288 289 288 288 290 289 288 288 289 290 289 289 292 294 293 291 292 293 293 294 295 296 296 296 296 295 295 295 294 293 292 292 291 290 289 289 288 288 287 287 286 285 285 285 284 284 284 283 282 282 281 281 280 280 280 279 279 278 278 278 278 277 276 276 276 278 278 278 278 278 278 278 279
278 277 278 280 277 279 287 284 289 291 291 290 289 290 290 290 290 290 289 288 287 289 290 292 292 292 294 293 292 290 288 293 295 295 295 295 295 296 295 295 294 294 294 293 291 290 290 289 288 287 287 287 286 285 285 285 284 284 284 283 283 282 281 281 280 280 280 279 279 278 278 277 277 277 277 276 277 276 277 277 277 277 276 276 278 277 278
277 276 278 275 278 282 285 286 286 288 290 288 288 287 288 288 289 290 289 291 291 289 290 290 290 290 289 289 287 289 289 292 295 294 296 296 295 295 296 296 295 294 293 292 291 291 290 288 288 287 287 286 286 285 285 284 284 283 283 282 282 281 280 280 280 280 279 279 278 278 277 277 276 276 276 276 276 276 276 276 276 276 276 276 276 276 276
277 276 277 279 282 283 285 285 286 287 285 285 286 283 287 290 290 290 291 291 292 291 291 290 287 286 287 289 291 290 289 288 291 295 296 297 297 297 297 297 296 296 295 294 292 290 289 288 287 287 286 286 285 284 284 283 283 282 282 281 281 280 280 280 279 279 279 278 277 276 276 276 275 275 275 275 275 275 275 275 275 276 277 276 275 275 275
281 277 275 275 277 276 282 285 285 290 290 291 291 288 285 289 291 293 292 291 292 292 290 288 286 287 290 287 290 294 289 289 291 292 294 293 293 293 292 292 291 291 290 289 288 289 287 286 286 286 286 286 285 284 283 282 282 281 281 281 280 280 279 279 279 278 278 277 276 276 275 275 275 275 274 273 274 274 274 274 275 277 277 277 276 274 274
282 280 279 278 276 280 283 287 288 289 291 292 289 284 284 289 291 292 292 292 292 291 290 286 287 289 285 288 292 294 289 289 290 291 290 288 288 290 291 292 291 290 289 289 287 287 286 286 285 286 285 285 284 283 282 282 281 281 280 280 280 279 278 278 278 277 277 276 276 275 274 274 273 273 272 272 273 273 274 274 276 276 276 275 274 274 275
282 282 280 279 281 282 285 287 287 290 290 293 290 278 282 286 289 291 291 291 291 291 291 288 289 289 287 288 293 287 287 288 288 289 289 287 287 286 286 288 290 289 287 286 286 286 286 286 286 285 285 285 284 283 282 281 281 280 280 280 279 278 278 277 276 276 276 275 274 274 273 272 272 273 272 272 273 273 274 274 274 274 273 273 272 273 272
280 283 275 275 281 284 284 285 286 288 292 292 283 280 286 288 289 288 290 291 293 292 288 289 289 291 292 290 286 283 284 285 285 282 284 285 286 287 287 287 287 287 287 288 287 287 287 286 285 285 285 284 283 282 281 281 280 280 279 278 278 277 277 276 275 275 274 274 273 273 273 273 273 273 272 273 274 274 273 273 272 271 271 271 270 269 268
280 280 279 279 280 284 287 283 287 289 290 279 282 289 287 287 286 285 289 291 290 288 289 288 291 290 282 282 283 284 284 284 282 282 282 283 282 282 283 285 286 286 286 286 286 285 285 285 285 285 284 283 282 281 281 280 279 278 278 277 277 276 275 274 274 274 273 273 272 272 272 272 272 272 272 272 273 272 271 270 270 270 269 268 268 268 269
273 272 276 274 277 282 288 288 287 287 287 285 285 284 284 284 284 286 284 287 287 288 289 288 288 282 282 283 283 283 282 281 282 282 282 283 283 283 284 284 284 286 285 285 285 284 284 284 284 284 284 282 280 280 279 278 277 276 276 276 275 275 274 273 273 273 272 272 271 271 271 271 271 271 272 271 271 271 271 269 268 267 267 267 267 267 268
279 279 277 280 285 286 289 292 288 288 290 285 285 289 289 286 284 284 286 286 285 286 288 287 283 282 283 282 280 281 282 281 282 282 281 281 281 282 283 284 284 285 285 284 283 281 282 282 282 282 282 280 279 278 277 276 275 275 275 275 274 273 273 273 272 272 271 270 270 270 270 270 271 272 271 270 270 270 270 268 266 266 266 266 266 267 266
281 282 285 284 281 287 286 285 287 293 289 282 284 286 288 288 286 283 285 288 284 284 286 286 285 283 282 283 283 284 283 282 282 282 281 281 282 282 282 282 281 282 283 281 279 279 279 279 279 279 280 279 277 276 275 275 274 274 274 273 273 272 272 272 271 270 270 270 270 268 269 271 271 271 271 270 269 268 267 266 266 265 265 265 265 265 266
284 283 284 283 283 284 285 286 283 284 286 283 281 283 287 285 284 286 287 286 284 283 285 286 283 285 285 283 283 281 281 281 280 280 280 279 279 279 279 278 278 278 278 278 278 277 276 276 277 277 277 278 277 276 275 274 273 273 273 272 272 271 271 271 271 271 271 271 270 270 270 270 270 270 269 269 268 266 264 263 263 263 265 265 264 264 265
285 282 282 286 287 286 284 284 282 280 281 283 282 284 285 286 284 283 283 285 284 285 286 288 288 285 284 284 284 282 281 281 280 280 280 279 279 279 278 278 276 277 277 277 277 276 275 273 275 275 275 275 275 274 273 273 273 273 272 272 272 272 271 271 271 271 271 270 270 270 269 269 268 268 267 266 266 266 263 261 262 263 264 265 264 265 264
285 282 280 282 281 281 281 282 285 286 285 283 283 284 283 282 282 283 283 282 283 284 284 284 287 285 284 284 284 282 282 282 281 281 280 279 278 277 277 276 276 276 277 277 276 276 275 273 273 273 273 273 273 272 272 272 272 272 272 272 272 271 270 270 270 270 270 270 269 268 268 267 267 266 266 265 262 263 262 262 261 263 263 263 264 264 263
282 283 283 281 283 285 286 283 281 282 284 284 283 282 282 282 284 283 282 282 283 283 285 283 283 284 283 283 283 283 282 281 281 281 280 279 278 277 276 275 275 277 277 276 276 276 274 272 272 272 271 271 271 271 271 271 272 272 271 271 271 270 270 270 269 270 269 269 267 267 266 265 265 265 264 262 262 261 262 260 261 262 261 263 264 262 262
282 285 283 285 283 282 287 285 284 283 281 282 282 282 283 282 283 282 284 283 281 281 281 282 283 284 283 281 282 282 282 281 281 280 279 278 277 275 274 274 274 274 274 275 274 274 273 271 271 271 270 270 270 270 270 270 271 271 270 270 270 269 269 269 269 268 267 266 265 265 264 264 263 263 269 271 267 261 263 272 275 276 274 265 265 265 265
285 286 286 289 284 282 283 284 282 281 280 282 283 283 283 283 281 280 282 284 284 283 282 281 282 281 283 282 281 280 280 280 280 280 279 277 276 275 274 273 272 273 273 272 272 272 272 270 270 269 268 268 268 268 269 269 270 270 270 269 268 267 267 267 267 266 266 265 264 263 263 262 262 263 262 265 274 274 273 273 274 275 274 274 274 274 271
283 282 286 283 282 285 283 281 281 281 281 282 282 282 281 282 281 280 280 282 282 282 281 281 281 281 281 281 282 281 278 277 278 277 276 276 275 275 274 275 274 273 272 271 272 272 271 270 269 268 267 266 267 267 267 267 268 269 269 269 268 267 267 267 267 266 265 264 263 263 262 261 262 263 263 262 262 270 271 271 273 274 273 272 272 273 273
284 282 280 280 281 282 282 281 280 279 280 282 283 281 281 281 281 280 280 281 281 281 281 281 280 280 280 280 280 280 279 277 277 277 276 275 275 274 274 274 273 273 273 272 272 271 271 270 268 267 267 266 265 265 265 266 267 267 267 268 267 267 266 266 266 265 264 263 262 262 261 261 261 262 262 263 262 259 263 270 271 271 271 271 271 271 272
283 282 282 281 281 281 281 282 282 281 279 279 279 278 279 280 279 278 278 279 278 279 281 280 280 281 282 282 281 278 276 275 275 276 275 274 273 273 273 273 273 272 271 271 270 270 270 268 268 267 266 265 264 264 264 265 265 266 265 265 266 266 265 265 264 264 263 263 262 262 262 262 262 261 261 260 258 259 257 257 259 264 268 269 269 270 271
283 284 284 283 282 281 281 281 283 281 279 278 280 278 276 275 276 276 274 273 274 274 276 279 280 280 280 280 279 278 278 275 274 274 274 273 273 273 272 271 271 271 270 269 269 269 269 267 266 266 265 264 263 263 263 263 263 264 263 263 263 264 265 264 264 263 263 263 262 262 263 262 262 261 260 259 259 257 256 257 256 256 255 258 264 269 267
284 282 283 285 282 282 281 282 282 280 279 279 278 277 275 275 276 277 277 278 278 277 277 275 278 278 278 276 276 273 272 273 274 272 273 273 272 270 269 269 269 269 268 268 267 267 267 266 265 264 264 263 262 261 261 261 262 262 262 262 263 263 264 264 263 263 262 262 262 262 262 261 261 260 260 260 260 257 258 258 256 255 256 255 256 264 267
280 280 281 284 285 283 281 280 280 279 277 277 278 278 279 279 278 278 278 277 276 275 279 276 273 274 274 273 273 273 272 272 272 273 273 271 269 268 267 267 267 266 266 266 265 266 266 265 264 263 263 262 261 260 259 260 261 261 261 262 262 263 263 263 262 262 261 261 261 262 263 261 261 259 259 259 258 257 256 256 256 256 254 253 254 255 262
279 281 283 282 282 282 282 281 280 279 278 277 278 276 276 279 279 279 276 275 274 277 275 272 274 274 272 272 271 271 272 272 272 271 270 268 267 266 266 266 265 263 262 263 265 265 265 264 264 263 263 261 260 259 259 260 260 260 260 262 262 262 262 261 261 261 260 260 261 263 262 261 260 260 258 257 258 258 257 255 257 256 254 253 260 255 255
278 280 281 281 281 281 282 281 280 278 276 274 274 275 273 274 275 275 276 275 271 273 271 271 271 270 270 270 269 269 269 269 269 268 268 267 265 266 266 266 268 267 267 267 266 265 264 264 263 263 262 261 260 259 258 259 259 259 260 261 260 263 263 263 262 261 261 261 261 261 261 261 260 260 260 259 259 257 255 254 255 254 255 253 253 254 254
280 279 278 278 278 279 278 277 278 277 275 273 274 276 274 276 278 278 275 274 273 271 268 267 268 271 270 267 265 264 264 263 263 263 263 263 264 264 265 266 269 267 265 265 265 264 264 263 263 263 261 260 259 258 258 259 259 260 260 261 260 261 263 263 262 262 261 261 261 261 261 260 260 260 259 259 258 257 254 253 253 254 253 254 254 254 255
280 279 278 277 276 277 278 276 278 277 274 275 277 278 275 273 273 273 273 272 270 268 267 269 269 268 265 264 263 263 262 260 261 262 262 263 264 264 264 265 265 264 262 262 264 264 264 263 263 261 260 260 259 258 258 259 259 260 261 261 260 261 262 263 262 262 261 261 261 261 261 261 260 259 257 257 257 256 254 254 254 255 255 254 253 253 255
282 282 283 281 281 280 279 280 277 277 276 274 273 274 274 274 274 273 273 270 271 269 270 271 269 266 263 264 263 262 262 264 265 266 265 264 264 263 262 262 262 261 259 258 261 262 263 263 262 261 260 260 259 258 258 259 260 260 261 261 261 261 262 262 263 262 261 261 261 261 260 260 259 258 258 259 258 256 255 255 255 255 253 253 253 253 259
283 282 282 283 282 282 282 282 278 277 276 276 275 274 274 273 272 273 272 273 273 275 272 271 268 266 265 264 264 263 265 269 271 270 268 266 264 262 261 260 259 259 260 259 260 262 262 263 262 261 260 259 259 259 259 259 260 260 261 261 261 262 262 262 262 261 261 261 261 260 260 260 259 259 259 257 257 256 255 255 255 255 254 253 253 254 256
279 279 278 276 275 275 275 275 276 276 276 276 275 272 270 270 270 270 270 270 270 270 270 267 265 264 264 264 264 264 265 268 269 269 266 264 262 261 260 260 261 260 261 262 262 261 262 262 262 261 260 260 259 259 259 260 260 261 261 262 261 262 262 261 261 261 261 260 260 260 260 259 258 257 258 257 256 255 254 254 254 254 254 253 253 254 254
274 275 273 271 271 271 271 273 272 271 271 271 270 269 268 267 267 266 265 265 266 268 265 263 262 264 267 267 268 266 266 267 267 266 264 260 260 260 260 260 259 260 261 262 265 263 262 262 261 261 261 260 260 260 260 260 261 261 261 261 261 260 260 260 260 260 260 260 259 260 259 259 259 258 258 256 254 254 255 254 255 255 253 253 254 254 254
267 268 269 270 269 270 268 266 266 267 269 268 266 266 265 262 261 260 261 262 262 263 263 263 266 266 265 264 263 265 266 264 263 263 261 260 260 260 259 260 261 261 261 264 263 263 262 262 261 261 261 261 260 260 261 260 260 260 260 261 261 260 260 260 260 260 260 260 260 259 259 259 258 257 255 254 254 255 256 255 254 254 253 253 253 253 253
267 265 265 264 265 265 265 265 263 262 263 264 262 261 260 260 259 258 260 260 260 260 262 262 261 263 263 264 265 264 263 262 262 262 260 260 259 261 264 264 265 265 265 261 261 260 262 261 261 260 260 260 260 260 260 260 260 260 260 260 260 260 260 260 260 259 260 259 258 258 258 258 257 256 254 255 255 255 255 255 254 254 253 252 251 251 251
262 261 260 261 262 262 263 263 262 260 259 259 259 258 258 258 258 258 258 258 259 260 258 260 262 264 263 262 262 265 264 262 261 260 260 259 258 259 262 263 264 264 262 261 259 260 261 261 261 260 260 260 260 260 260 260 260 260 260 260 260 260 260 260 260 259 259 259 258 259 258 258 257 256 256 256 256 255 253 253 254 253 252 252 250 250 252
258 259 259 259 259 259 259 259 260 259 258 258 256 256 256 256 256 257 258 258 258 258 258 259 260 261 261 262 263 264 260 259 259 260 258 257 257 260 260 265 262 262 263 262 260 260 261 261 261 260 260 261 260 260 260 260 259 259 259 259 259 259 259 260 259 259 259 259 258 259 259 258 257 257 257 257 256 255 255 253 253 252 251 251 250 250 250
257 257 257 256 256 256 255 255 256 257 256 255 255 254 255 255 256 256 257 257 257 257 257 257 259 260 259 258 258 257 257 256 256 256 258 262 263 261 261 264 257 257 261 261 260 260 260 260 260 260 260 260 260 260 260 259 259 259 259 259 259 259 259 259 259 259 259 259 259 259 258 258 257 257 257 256 255 255 254 253 252 251 250 251 251 251 250
255 255 255 255 254 254 253 254 253 254 254 254 252 252 252 251 253 253 252 254 253 254 257 256 257 257 256 255 255 257 259 255 254 254 255 259 260 262 265 259 252 254 259 260 259 258 259 259 259 259 260 260 260 260 260 259 259 259 259 259 259 259 259 259 259 259 259 258 258 258 257 257 257 257 256 256 255 255 254 254 254 253 252 250 250 249 250
254 254 254 254 253 253 254 254 254 253 253 254 255 252 251 251 251 252 252 253 253 255 254 255 254 254 255 254 254 257 258 254 255 254 254 259 260 260 259 259 257 256 258 258 258 258 258 258 258 259 259 260 260 260 259 259 259 259 259 259 259 259 259 259 259 259 258 258 257 257 257 257 257 256 256 256 255 254 254 254 253 253 253 252 250 250 250
253 253 252 252 252 252 253 253 252 252 253 254 253 252 251 250 251 250 251 251 252 253 254 253 253 253 252 253 254 255 257 255 256 256 255 259 260 262 256 258 257 256 257 258 257 257 257 257 258 259 259 259 260 259 259 259 259 259 259 259 259 259 259 258 258 258 258 258 258 258 257 257 257 256 256 256 256 255 255 254 254 254 253 253 252 251 250
252 252 252 253 251 251 252 251 251 251 252 253 253 254 252 250 250 250 250 250 250 250 253 253 252 253 253 253 254 254 254 254 254 256 259 261 262 258 252 255 254 257 257 258 256 257 256 258 259 259 259 259 259 259 258 258 259 259 259 259 258 258 258 258 258 258 258 257 257 257 257 256 256 256 256 256 255 256 255 255 254 254 253 253 252 251 251
250 251 251 250 251 250 251 251 252 253 254 254 254 253 253 252 250 249 249 248 248 248 248 249 251 251 251 251 252 253 255 255 256 256 256 256 256 254 255 257 257 257 257 257 257 256 256 257 258 259 259 259 259 258 258 258 258 258 258 258 258 258 258 258 258 257 257 257 257 256 256 256 255 255 255 255 255 255 254 254 254 254 253 253 252 253 253
250 249 250 250 249 250 250 250 251 252 251 251 251 251 251 251 250 249 249 249 249 248 249 248 249 247 249 248 249 251 253 254 255 256 254 253 252 251 251 252 255 257 257 257 257 257 258 258 258 258 258 258 258 258 258 258 258 258 257 257 257 257 257 257 257 257 256 256 256 256 255 255 255 255 254 254 254 254 254 254 253 253 252 252 252 252 250
248 248 249 249 249 250 250 251 251 251 251 251 250 251 252 251 251 251 251 250 250 251 251 250 249 249 248 250 250 249 250 252 253 255 254 252 251 252 252 255 256 256 257 256 256 257 258 258 258 258 258 258 258 258 258 258 257 257 257 257 257 257 257 257 257 257 256 255 255 255 255 255 255 255 254 254 254 254 253 253 253 252 252 252 251 251 251
248 249 249 249 250 249 249 250 249 250 250 250 250 251 251 251 251 251 251 251 251 252 251 250 249 249 248 248 247 247 247 248 251 252 253 253 251 252 254 254 255 256 257 257 256 257 257 257 257 257 257 258 258 258 257 257 257 257 257 257 256 257 256 256 256 256 255 255 255 255 255 255 255 254 254 253 253 253 253 253 252 252 253 253 252 251 250
247 247 247 248 247 248 246 246 248 249 248 249 248 249 250 248 250 251 251 251 251 250 251 251 249 249 249 247 247 246 246 248 249 253 252 252 251 254 255 254 255 256 256 256 256 256 257 257 257 257 257 257 257 257 256 256 256 256 256 256 256 256 255 255 255 255 255 254 254 254 254 254 254 254 253 253 253 253 252 252 252 251 251 251 251 251 250
245 244 245 246 246 246 246 246 246 246 246 247 246 246 247 248 249 249 248 252 249 249 250 250 251 250 248 246 248 247 247 248 249 249 251 251 250 249 252 254 253 254 255 255 256 256 256 256 256 256 256 257 257 256 256 256 256 255 256 256 255 255 255 255 255 255 254 254 254 254 254 254 254 253 253 253 252 252 252 252 252 251 251 251 250 250 249
Wind_Speed
2 7 12 12 13 14 15 17 16 15 13 11 13 12 14 8 9 12 11 10 9 11 8 9 9 8 9 10 9 6 4 5 5 7 9 9 9 9 10 12 10 11 12 11 10 9 8 7 8 7 6 6 5 5 5 6 7 7 7 9 9 8 8 9 8 7 7 6 6 6 6 6 6 6 5 5 4 5 6 6 6 5 5 5 5 5 4
3 1 5 7 12 9 9 13 17 18 15 14 15 16 14 12 11 13 14 8 14 9 6 9 8 5 3 2 1 4 5 8 10 9 9 11 11 12 14 14 13 10 9 9 9 10 9 10 9 9 8 8 8 9 8 7 7 6 7 8 10 9 9 9 8 7 7 6 6 6 7 6 5 5 5 4 5 6 6 6 6 5 5 4 4 4 5
3 1 2 4 9 8 8 8 9 11 12 16 18 17 15 10 11 10 6 5 9 7 8 7 1 2 1 0 3 9 9 8 10 11 11 11 13 14 12 10 10 9 8 9 9 10 11 11 12 11 9 9 8 8 8 9 9 8 7 9 8 9 10 7 8 7 7 7 7 7 5 5 5 5 5 5 6 6 6 6 6 5 4 5 5 4 4
2 1 3 5 3 3 6 8 9 11 13 14 13 12 9 7 10 10 7 9 13 6 2 5 5 2 4 6 8 6 4 7 9 11 12 13 14 13 13 12 9 10 11 12 13 14 14 13 13 12 11 10 10 10 9 9 9 7 7 8 10 9 9 8 7 8 7 7 7 6 5 5 5 5 5 6 6 6 6 6 5 4 6 5 5 5 5
3 1 3 7 5 2 5 14 18 17 13 13 9 10 8 11 14 13 12 16 11 3 7 7 5 4 7 8 6 3 3 6 12 14 15 15 15 15 13 12 14 14 16 17 18 15 13 13 14 12 12 12 12 12 11 9 8 8 8 9 9 9 7 8 7 7 7 8 7 6 5 5 5 6 6 6 6 5 5 3 4 6 5 5 5 5 4
4 1 2 5 7 5 17 4 7 13 16 15 12 12 15 14 8 10 12 9 2 6 7 8 6 9 9 11 10 8 9 10 10 11 11 13 15 13 12 14 16 17 13 11 12 14 14 12 10 10 10 11 10 9 10 9 10 9 10 8 9 9 8 7 7 7 7 7 8 6 5 6 6 6 6 6 4 4 3 4 5 5 5 5 4 4 4
5 2 3 5 8 17 1 3 0 12 14 15 20 19 16 16 13 12 9 7 5 8 8 9 10 10 10 7 6 5 6 9 12 15 16 15 14 13 13 13 12 13 15 13 11 10 11 13 11 11 9 7 8 8 9 10 8 10 8 10 8 9 9 7 7 7 7 7 8 6 6 6 6 6 5 4 5 4 4 4 5 4 3 3 3 3 4
4 2 6 7 15 3 4 4 0 1 7 3 5 8 8 8 9 11 14 16 10 7 8 7 2 4 5 4 5 8 7 9 11 11 13 14 13 13 14 17 17 16 15 17 19 18 11 11 11 11 11 9 10 10 8 9 9 8 9 9 9 8 8 8 8 7 8 8 7 7 7 6 6 6 5 5 5 3 4 4 4 3 3 2 2 3 3
6 5 7 10 5 8 6 4 2 6 6 7 10 10 13 9 9 11 14 15 11 9 10 6 2 1 1 2 9 7 8 9 9 12 14 15 16 17 17 17 19 19 18 16 13 10 11 12 12 12 10 11 10 11 10 9 9 9 9 10 9 9 8 8 7 7 7 8 8 7 5 6 6 5 5 4 4 2 4 3 3 3 2 2 2 3 4
6 6 1 2 4 9 13 3 1 4 5 7 9 8 9 6 12 13 13 14 14 12 8 4 3 2 1 6 10 11 7 10 12 11 9 5 3 4 4 3 3 5 6 7 8 12 12 11 11 10 11 11 11 11 10 9 10 9 9 10 8 9 8 7 7 7 6 7 8 7 6 7 6 4 3 3 3 2 4 3 3 3 3 3 3 3 3
4 2 4 6 8 13 3 8 6 6 8 10 6 2 11 7 11 11 13 14 9 8 9 5 6 5 5 11 13 7 5 9 9 10 9 4 3 5 8 10 10 10 10 12 12 11 12 13 12 11 12 12 12 11 11 11 9 10 9 9 9 9 8 7 7 7 7 7 7 7 7 6 5 5 4 3 2 3 3 3 3 3 3 3 2 3 3
6 8 7 11 5 6 4 7 5 10 9 11 7 1 15 2 8 12 11 11 10 11 11 10 11 11 9 13 12 2 6 5 3 6 7 6 3 3 4 5 8 9 10 13 11 14 17 17 14 14 13 13 12 12 11 10 10 10 9 9 7 7 8 7 6 6 6 7 7 7 7 6 5 4 3 3 4 3 4 4 3 3 3 2 2 3 4
5 8 4 3 7 3 3 5 4 7 10 11 6 17 8 7 9 4 8 13 14 12 8 10 10 13 10 4 1 1 0 3 1 2 1 2 4 7 8 8 10 12 12 15 18 18 14 13 13 13 13 13 12 10 11 10 10 8 8 8 8 8 8 8 7 7 6 6 8 6 5 6 5 4 3 4 3 4 4 3 4 4 4 3 3 2 2
10 9 8 9 7 8 10 1 8 9 7 6 16 7 1 7 5 4 9 11 9 6 10 9 11 8 1 1 1 1 1 2 1 1 3 4 5 4 3 7 9 10 10 8 8 8 9 14 14 13 13 13 11 12 11 11 8 8 8 8 8 8 8 8 7 7 7 6 5 6 5 5 6 5 4 4 4 3 3 4 5 5 3 2 0 1 1
3 2 5 0 12 4 9 11 2 3 8 8 6 3 2 2 4 7 3 7 6 8 9 10 7 3 1 2 2 1 1 3 4 4 4 5 7 8 8 7 5 11 10 10 10 10 9 11 11 11 13 13 12 10 11 9 8 8 8 8 8 8 8 8 7 7 6 6 6 5 5 5 6 6 4 4 4 4 4 5 5 3 1 0 2 1 0
9 10 10 11 7 7 10 18 13 9 10 2 5 7 3 2 3 5 5 5 6 7 8 8 5 4 5 1 1 2 1 1 1 2 2 2 3 3 2 5 8 8 9 8 9 7 8 9 9 9 13 13 11 11 10 8 8 8 8 8 8 9 8 8 8 7 6 6 5 4 4 5 5 6 5 4 3 4 5 5 3 1 1 2 2 0 2
8 10 13 7 3 8 5 2 0 12 6 2 5 2 4 6 4 4 4 6 4 6 7 7 8 5 5 5 6 7 7 5 5 5 4 4 4 5 6 6 5 5 9 11 10 8 6 8 7 8 8 13 13 13 10 9 10 10 9 9 9 9 9 8 7 6 6 5 5 4 3 4 6 5 5 4 6 5 4 2 1 1 1 1 3 3 3
3 5 3 2 2 2 2 0 1 1 4 1 2 3 3 3 4 8 6 5 5 5 6 10 4 6 8 6 7 4 3 5 3 2 3 3 3 4 5 5 5 6 8 8 10 10 6 5 7 6 7 10 16 12 10 9 9 9 10 11 10 9 8 7 7 7 8 6 5 6 5 4 4 4 6 5 5 4 2 1 1 1 1 2 3 3 3
7 10 2 6 5 5 4 1 1 1 1 1 2 1 2 2 3 3 2 4 6 8 8 9 10 8 7 8 6 4 4 5 5 5 5 4 5 7 8 6 8 9 9 10 10 10 10 5 6 6 7 5 6 10 11 9 9 10 10 11 11 9 9 8 7 7 8 5 5 4 4 4 4 5 5 5 4 3 3 2 1 1 1 2 2 3 3
12 7 2 2 2 0 1 3 4 3 1 1 0 0 1 2 1 1 1 3 3 2 4 4 8 8 7 8 8 6 6 6 6 6 6 7 5 4 5 6 7 7 10 12 12 11 10 7 6 7 7 7 8 9 8 9 10 10 10 11 11 10 9 8 7 7 7 6 6 4 4 5 6 5 3 4 4 5 4 3 2 1 2 3 3 3 3
2 2 1 0 3 3 0 1 3 3 5 4 3 2 2 3 4 3 2 2 2 2 1 1 3 7 7 5 6 7 6 5 6 7 6 6 6 7 9 6 8 10 10 10 10 11 9 7 7 7 7 8 9 10 9 9 10 11 10 9 9 9 8 8 7 7 6 5 5 6 6 5 3 3 5 4 5 3 4 4 3 4 4 4 4 2 3
5 10 6 7 5 4 7 7 5 3 2 2 4 2 3 2 4 2 3 2 2 3 3 4 4 5 5 4 5 6 7 7 6 6 6 6 6 5 4 5 5 5 6 9 11 10 8 7 7 8 8 8 7 7 7 8 9 11 11 10 9 9 7 7 7 7 7 6 5 5 6 6 5 1 3 6 5 4 2 2 4 5 6 3 3 2 2
11 7 10 11 4 2 1 5 4 2 3 4 4 3 2 0 0 1 3 2 2 2 2 1 3 3 6 6 5 4 4 5 5 6 8 9 8 8 8 8 7 7 7 7 7 8 8 7 7 7 7 7 7 6 6 7 8 10 11 10 8 8 8 7 7 8 8 7 5 6 5 5 5 7 5 2 5 7 5 4 4 6 9 8 7 6 4
2 1 8 7 5 8 4 4 3 3 4 4 4 1 1 1 1 2 2 1 2 0 1 0 1 4 4 5 7 7 4 4 6 6 5 4 6 6 7 8 9 9 9 10 11 12 8 8 7 7 7 6 7 7 7 7 6 8 9 11 11 9 8 8 8 8 6 5 5 7 5 4 5 6 7 6 2 4 5 4 4 5 7 6 6 6 6
4 3 4 3 7 8 5 5 3 3 3 5 6 4 2 3 1 1 3 1 1 2 3 1 0 2 5 5 4 5 6 5 5 7 6 6 7 8 8 8 9 11 10 8 7 6 8 8 8 7 8 7 6 6 6 6 7 8 8 8 10 9 9 9 8 8 7 7 7 6 7 7 6 5 7 7 8 2 2 4 4 4 5 5 6 6 5
12 8 8 7 7 8 6 6 5 3 3 4 4 2 2 3 3 4 3 1 1 1 2 3 3 1 3 5 3 3 3 4 5 6 6 7 6 6 8 8 6 4 5 5 6 7 7 8 8 7 8 7 7 6 5 6 7 7 7 7 8 10 10 10 10 8 8 7 8 7 5 5 6 7 5 6 6 7 6 1 3 4 4 4 5 5 5
10 15 17 12 9 4 1 5 8 5 3 2 6 5 3 3 4 4 2 2 1 1 1 1 3 3 3 3 5 3 5 4 4 4 5 5 7 6 4 4 5 5 6 6 6 6 8 8 7 7 7 6 5 5 6 7 7 7 7 7 6 7 10 9 8 8 7 7 7 7 7 6 6 7 6 5 5 6 6 7 4 1 2 4 6 4 1
10 3 1 12 10 8 4 3 7 5 4 4 4 5 3 3 3 3 2 1 1 1 2 2 4 4 4 2 5 4 4 5 6 5 5 7 4 4 4 5 5 6 6 6 6 5 7 7 7 7 7 6 6 6 6 6 7 7 7 7 7 7 8 8 7 6 6 7 7 7 9 9 7 6 6 6 6 5 4 3 3 1 2 3 2 5 6
1 2 3 5 9 9 9 8 7 7 5 2 2 3 4 5 3 3 2 1 1 2 2 3 4 3 2 2 2 4 3 4 4 7 6 4 4 4 5 5 5 4 5 5 5 6 7 7 8 8 9 6 6 6 6 7 7 8 8 8 8 7 7 7 6 6 6 6 6 6 5 7 6 6 6 6 6 5 6 5 3 3 5 3 3 5 3
3 4 10 10 9 9 11 7 8 6 6 5 6 3 1 3 3 0 1 1 1 0 1 2 2 1 2 3 2 4 6 6 5 3 4 4 5 5 6 6 6 4 2 4 8 7 8 8 9 11 8 7 7 6 7 7 7 6 7 7 6 7 7 7 7 7 7 7 6 7 7 6 5 6 6 6 5 5 6 5 5 4 4 4 3 2 2
6 6 9 7 7 4 5 5 4 5 5 3 3 4 2 2 2 0 1 0 1 1 2 1 1 2 1 3 3 2 2 3 3 4 4 4 5 6 7 9 10 10 12 12 10 9 9 10 9 9 5 7 7 8 8 8 7 6 6 6 5 7 10 11 8 7 7 7 7 6 6 6 6 6 7 7 6 6 6 6 4 4 5 4 4 3 3
11 8 7 4 3 3 4 3 4 4 3 2 2 2 3 3 1 1 1 1 2 2 2 2 3 4 3 1 2 3 3 3 3 3 3 4 5 6 7 9 10 7 4 5 7 9 8 8 11 9 6 8 8 8 8 7 7 8 8 7 7 7 9 12 7 8 7 7 6 6 6 7 7 6 6 6 6 7 6 7 6 5 6 6 5 4 3
10 7 3 2 2 2 1 0 3 4 4 5 6 3 2 2 1 2 3 1 1 1 2 4 1 0 3 4 4 4 3 3 2 3 4 5 5 6 7 7 6 3 2 3 6 8 10 12 11 5 7 8 9 9 8 7 7 7 7 7 7 6 6 8 8 7 6 6 6 7 6 6 6 7 7 7 7 7 6 6 5 4 5 6 6 5 3
9 7 8 9 10 8 6 7 5 4 4 3 2 1 3 4 3 2 0 1 0 1 3 4 2 3 4 5 5 5 5 4 2 5 8 7 7 6 5 5 4 4 3 1 4 6 8 9 7 8 8 9 9 8 8 8 8 7 7 7 8 8 9 8 9 7 8 8 7 8 8 7 7 7 7 7 6 7 7 5 6 6 6 6 6 4 5
6 4 4 8 6 6 7 7 8 7 7 6 6 5 3 1 2 3 2 2 3 5 3 2 2 4 5 4 5 5 6 7 7 6 6 7 6 5 4 4 4 3 5 5 6 7 7 7 7 7 8 8 9 9 9 10 8 7 7 9 9 9 8 7 8 9 9 9 8 9 8 8 7 6 6 6 6 6 5 6 5 5 5 5 4 3 4
1 3 3 4 2 2 2 2 3 5 6 5 4 3 2 4 3 2 3 3 2 1 2 2 3 4 4 4 5 6 8 9 8 6 4 4 4 4 5 5 6 6 8 10 9 7 6 7 9 10 8 8 9 9 9 9 9 8 9 9 9 8 7 8 8 8 6 8 10 10 7 6 6 7 6 6 5 4 6 5 5 5 6 6 4 3 3
5 5 5 5 5 6 6 5 2 3 3 2 3 3 3 2 1 0 1 2 2 1 2 3 4 4 7 8 7 5 5 6 5 4 2 3 5 6 6 5 5 7 6 10 10 10 10 9 12 17 11 9 11 12 13 15 10 9 8 9 9 11 11 9 11 11 10 8 9 8 7 6 6 6 6 6 6 5 5 6 6 6 6 5 4 3 3
6 7 7 6 5 7 7 5 4 5 6 9 7 6 5 3 4 3 3 3 4 3 1 4 5 4 3 1 3 5 5 4 4 2 2 4 5 5 4 7 8 6 8 13 2 8 8 10 14 12 9 8 9 10 12 17 13 10 8 8 8 9 11 12 11 8 8 8 8 8 7 8 7 6 5 5 6 5 6 6 6 6 6 5 4 4 4
7 6 7 6 6 7 6 6 7 7 7 7 4 4 4 3 3 4 4 4 4 4 1 3 2 1 2 3 5 4 4 4 4 4 4 4 4 6 10 11 11 12 9 1 5 5 7 10 11 10 10 9 9 8 11 14 15 10 11 12 12 11 10 10 9 8 8 9 8 8 7 6 5 6 6 6 5 5 7 7 6 7 6 5 4 4 4
6 7 5 5 6 5 6 6 6 6 5 5 5 4 4 5 5 4 4 4 4 6 4 2 0 3 3 3 5 6 5 4 4 4 6 4 4 6 8 10 11 7 6 5 3 4 8 13 12 9 9 9 10 9 9 11 11 9 8 8 7 10 7 6 6 8 7 7 9 6 8 7 6 6 6 6 5 6 7 7 7 6 4 4 4 4 5
6 6 5 6 5 5 5 5 5 5 5 6 6 4 4 4 4 4 4 4 5 5 5 3 1 3 3 4 5 5 4 3 2 4 3 3 3 7 6 12 2 4 8 7 5 4 8 10 9 9 8 8 8 9 8 11 12 9 9 6 6 7 7 7 7 8 7 8 8 7 7 7 6 6 6 5 6 6 7 7 7 5 5 5 5 4 4
5 4 5 6 5 4 3 3 3 4 4 4 4 4 5 4 3 2 3 3 3 4 4 4 2 3 4 4 4 5 5 4 3 4 5 8 8 6 7 11 0 0 4 7 6 6 6 8 8 7 8 8 8 13 11 10 10 9 7 6 7 6 6 6 6 7 4 5 6 7 6 6 7 6 6 6 6 7 7 6 6 5 5 4 5 5 4
4 5 4 4 3 3 2 2 2 1 0 0 1 4 4 3 2 2 3 3 3 4 4 4 5 5 4 4 4 5 6 3 3 6 5 9 10 7 9 5 2 3 3 4 4 5 6 6 7 6 8 9 8 13 14 10 9 8 8 7 6 6 5 6 5 4 6 7 6 7 7 8 8 6 6 7 7 7 7 7 7 7 6 5 5 4 4
2 2 3 3 3 2 1 1 1 0 0 2 3 4 3 2 1 1 2 3 4 3 3 4 4 4 4 4 4 5 5 3 5 3 3 9 7 8 7 10 8 3 5 5 4 6 6 6 6 8 11 13 12 15 11 9 9 6 7 7 8 7 7 8 9 11 9 10 11 8 10 10 10 8 7 7 6 6 6 6 6 6 5 5 5 5 5
2 1 1 0 1 1 1 1 0 1 2 3 4 2 0 2 3 1 1 1 2 3 2 2 2 3 3 3 4 5 5 4 4 2 4 7 9 7 1 3 4 4 6 6 6 5 5 6 8 10 11 14 15 16 10 9 8 5 7 7 8 7 7 9 10 10 11 12 12 9 7 9 8 9 8 8 7 8 7 7 6 6 5 5 5 5 5
2 1 1 1 1 1 0 1 3 3 3 3 2 2 2 2 2 3 1 1 2 3 3 3 3 4 4 5 5 5 5 6 7 6 8 8 9 5 1 1 3 3 7 8 5 6 6 7 10 11 13 14 16 13 9 8 7 6 7 7 7 7 10 10 13 12 12 11 10 10 9 8 8 9 9 7 6 6 6 6 6 5 5 5 4 5 5
2 3 2 2 2 2 2 2 2 1 0 1 1 1 1 2 3 3 4 4 3 4 4 4 4 5 5 4 4 5 6 6 6 6 8 8 8 7 5 4 4 6 6 6 7 6 6 6 9 12 13 14 15 9 8 8 8 6 6 6 6 10 9 8 8 6 8 8 6 6 5 6 8 7 6 6 6 6 7 6 6 5 5 5 5 6 6
3 3 5 4 4 4 3 2 3 4 4 4 3 4 3 2 3 4 4 3 3 3 3 4 4 4 4 3 4 5 5 5 8 4 2 1 2 2 3 4 5 6 8 7 7 6 7 9 9 12 13 14 11 8 8 8 5 5 4 4 5 4 5 5 5 5 5 7 7 6 5 6 7 6 6 6 6 6 6 6 6 5 5 5 5 6 5
2 2 4 3 3 4 5 4 5 4 3 4 4 5 5 6 5 4 3 3 4 3 2 2 3 4 4 4 3 3 4 3 5 7 3 3 3 4 5 4 5 6 6 5 4 4 6 9 9 11 13 12 8 7 7 7 7 6 5 5 4 4 5 5 6 4 5 6 6 6 5 4 6 7 7 6 6 6 5 6 6 5 5 5 5 6 5
5 3 4 6 7 7 6 5 4 4 4 5 5 5 5 5 6 5 5 6 6 7 5 5 5 5 5 5 3 4 2 3 5 5 6 6 4 3 3 3 4 5 5 4 3 4 4 9 9 10 10 8 7 7 6 6 5 5 5 5 8 6 8 7 3 4 8 6 6 6 6 5 5 6 6 7 6 5 6 5 5 5 7 6 6 6 5
5 4 4 4 3 4 3 3 5 5 4 5 5 5 5 5 5 7 6 7 7 8 8 7 5 5 6 5 6 4 4 5 5 5 6 6 4 4 4 3 3 4 4 4 3 3 3 4 5 6 8 7 7 7 7 7 6 5 7 8 9 7 7 6 6 5 5 4 5 5 5 6 6 7 7 6 6 6 6 5 6 5 6 6 6 5 5
3 3 4 4 4 4 4 4 4 3 3 3 3 3 3 4 5 6 5 4 5 6 6 9 10 3 2 4 6 4 4 4 5 6 6 6 4 3 4 3 1 2 3 3 2 2 2 3 3 5 5 5 5 6 5 6 4 6 6 5 6 5 6 4 3 5 5 5 6 6 7 6 6 7 7 7 6 6 6 6 6 5 5 5 5 5 5
Wind_Direction
171 193 186 176 179 190 194 199 201 203 199 185 192 211 216 164 197 224 229 203 198 233 207 216 221 201 210 208 212 205 170 130 131 144 161 176 183 184 189 196 191 182 180 178 172 167 167 161 164 161 155 147 136 130 136 143 143 143 142 132 130 129 126 123 125 126 123 116 112 108 105 102 97 93 88 87 85 78 70 66 56 50 45 41 32 22 17
155 203 180 188 188 198 202 204 206 204 195 199 207 216 215 193 213 224 228 212 219 223 224 222 231 226 213 238 122 117 148 173 166 166 175 186 190 193 198 197 194 189 179 170 169 167 170 172 167 164 162 162 159 153 153 150 143 150 140 139 135 133 128 129 129 126 120 114 109 103 98 98 99 95 89 83 78 69 61 57 53 42 40 37 43 30 13
186 342 348 195 198 188 205 219 217 209 201 206 208 213 220 209 240 242 253 261 261 246 221 240 244 142 203 30 162 198 197 164 169 176 187 194 200 204 203 194 190 182 173 172 171 175 177 176 176 170 168 163 157 156 156 154 153 159 149 141 137 134 131 132 129 126 118 112 106 100 103 102 97 93 86 83 72 65 58 52 48 38 43 38 28 20 19
255 337 150 192 196 209 218 227 211 201 196 209 218 218 218 191 217 234 249 255 251 249 185 230 246 147 166 206 217 211 189 173 173 184 195 202 207 206 201 193 179 178 179 180 182 184 183 181 176 172 168 166 162 164 162 159 156 152 146 142 137 133 132 132 129 123 118 114 106 107 103 100 97 91 85 75 68 65 60 48 38 47 44 32 24 15 12
236 246 141 143 118 128 286 242 219 200 204 203 210 224 219 206 203 214 218 233 234 168 185 198 221 194 232 239 232 199 186 189 186 194 200 206 210 207 195 185 189 189 188 190 189 186 180 180 178 179 167 162 172 167 162 159 147 149 148 143 136 131 133 128 123 118 119 116 113 109 104 102 97 86 81 74 65 57 53 50 55 54 40 34 20 4 6
207 220 145 130 115 203 231 241 168 181 194 195 199 216 217 225 187 215 217 236 122 169 207 199 178 198 218 225 227 194 181 180 202 217 215 213 212 207 197 194 193 195 191 192 193 188 184 179 173 164 171 168 162 157 152 149 151 150 144 142 135 132 128 125 123 122 123 120 114 111 107 96 91 85 79 77 74 67 64 51 54 49 39 31 14 3 354
164 168 105 133 201 228 327 337 293 193 191 188 202 215 213 218 216 233 256 263 205 210 209 211 204 203 226 236 245 220 208 183 189 200 210 215 212 203 196 199 201 197 194 189 180 176 180 174 167 161 167 162 147 147 153 149 151 144 143 136 134 134 129 127 125 125 125 120 115 111 102 97 91 83 82 79 66 55 61 57 52 46 37 24 358 356 345
61 103 171 184 225 249 311 282 139 185 195 218 207 255 253 249 230 220 235 238 229 224 238 242 199 204 253 310 277 240 221 198 198 201 212 216 205 200 199 198 199 191 187 186 186 189 168 158 165 168 163 152 152 154 151 149 146 147 142 136 134 133 131 136 135 136 131 124 116 112 106 99 94 89 83 78 70 52 58 53 52 53 23 41 16 348 336
149 191 194 235 344 328 282 232 220 167 152 158 174 216 248 218 212 199 223 235 239 235 239 232 82 30 73 297 280 256 209 212 218 209 214 208 204 204 204 196 198 195 192 189 181 153 157 162 159 166 157 155 153 150 153 156 147 145 142 140 143 141 138 139 137 137 133 125 119 113 113 104 96 92 87 76 70 66 67 60 61 50 44 21 353 351 341
130 121 214 324 289 260 238 200 244 125 163 153 164 181 266 231 212 203 208 222 224 229 235 221 152 119 226 290 263 248 222 209 214 225 237 249 251 236 212 181 147 148 149 133 139 156 155 161 161 152 156 156 153 153 152 150 149 149 150 149 146 142 141 141 135 131 127 124 121 119 111 107 106 101 96 95 91 75 85 63 47 36 26 19 4 354 338
98 143 169 205 219 242 114 168 180 163 147 144 120 96 256 225 208 207 204 220 218 213 211 191 133 129 211 237 246 246 186 223 217 215 226 209 214 183 176 174 170 164 161 155 149 146 153 159 166 159 157 154 153 158 158 158 156 152 155 149 150 146 139 132 126 120 121 117 116 117 110 110 111 104 101 100 93 80 78 78 62 46 23 28 359 350 352
182 184 204 231 230 254 216 180 168 170 156 116 105 314 253 195 185 208 196 215 215 216 211 159 168 181 218 235 244 212 210 215 185 195 208 194 177 175 163 161 159 148 133 129 146 161 172 175 160 160 157 160 162 160 161 155 155 158 157 151 136 125 124 122 119 115 115 113 110 114 118 116 109 108 115 85 68 66 56 70 61 43 32 22 29 5 357
178 176 233 315 280 260 214 213 191 147 147 129 147 220 238 189 186 186 170 208 214 208 184 162 189 217 218 234 282 304 176 112 67 13 43 172 171 168 165 155 141 148 164 167 173 176 170 155 156 158 159 157 161 160 154 156 163 155 140 131 131 129 123 119 116 115 109 112 116 111 115 120 117 103 88 88 79 72 66 59 66 52 41 18 20 347 331
178 191 193 231 262 235 175 325 151 161 115 194 212 230 198 162 194 198 182 200 216 170 177 183 212 213 148 230 17 67 53 139 128 79 111 97 72 55 95 139 147 150 157 155 146 148 157 158 158 159 158 159 158 157 160 164 152 132 133 132 128 125 123 119 118 114 115 109 105 113 113 112 109 99 86 87 91 90 85 84 71 54 34 19 344 283 286
67 83 205 249 255 247 133 118 92 269 180 228 200 192 254 187 182 175 226 199 218 169 198 208 199 119 127 126 154 113 166 145 159 160 150 150 150 145 137 144 162 150 151 157 160 153 149 156 159 161 158 157 157 157 161 151 135 135 130 128 126 125 123 123 120 118 113 112 110 108 105 107 108 102 98 85 76 79 75 67 64 61 61 234 214 221 255
167 175 189 208 215 107 176 146 178 199 210 192 177 144 189 235 167 172 192 235 203 191 179 182 175 177 146 201 145 149 144 186 144 151 131 110 123 130 129 146 156 153 143 140 138 139 145 151 156 158 160 154 155 155 152 139 135 131 129 126 127 125 127 125 122 117 114 107 104 98 106 108 104 110 100 101 91 72 63 66 70 101 209 200 208 115 39
159 194 212 223 226 164 173 53 306 197 182 59 176 161 177 173 226 191 155 210 199 185 161 156 154 158 215 192 187 173 196 181 186 177 176 167 160 155 144 144 137 138 146 144 134 131 140 145 147 151 157 153 153 155 154 146 147 142 136 134 133 132 132 131 124 124 111 107 103 98 99 112 120 128 115 105 82 47 66 54 133 203 223 145 67 43 25
276 304 214 114 102 159 236 256 316 213 147 53 128 153 150 243 190 172 185 184 169 160 158 134 202 196 179 173 196 213 174 179 153 130 108 105 100 104 108 114 122 121 118 123 134 137 135 144 144 150 156 161 161 159 144 148 143 140 139 137 137 138 136 133 133 130 121 111 98 87 89 75 109 121 109 97 105 88 104 166 203 190 62 62 56 50 36
148 243 169 152 184 206 185 94 3 355 83 178 164 134 213 171 173 197 263 173 173 169 169 168 170 186 177 182 186 169 159 170 171 159 164 149 154 152 151 148 129 129 136 140 149 151 150 157 146 143 141 137 133 136 149 146 144 143 143 142 140 142 141 138 136 136 130 127 122 108 99 125 95 80 78 100 110 127 157 185 199 137 72 77 57 50 32
181 235 232 203 354 273 181 172 147 156 143 72 15 193 157 137 88 55 69 105 127 149 179 193 159 176 179 172 179 177 182 176 173 172 166 161 138 142 134 143 144 141 155 158 159 159 160 161 148 140 137 136 140 142 145 150 148 148 150 153 149 148 145 143 140 141 133 122 125 123 132 108 103 92 90 116 139 164 172 185 141 97 102 64 59 43 35
281 18 28 68 76 59 309 264 254 219 178 153 128 90 86 102 98 78 78 77 160 163 263 131 144 146 195 193 174 170 168 170 175 180 167 163 159 144 153 161 164 166 166 164 166 163 159 156 148 146 144 143 149 154 156 156 157 153 151 145 139 137 139 136 137 120 119 130 137 142 117 100 84 135 138 158 172 206 230 180 165 152 97 67 75 78 78
210 206 185 156 118 213 231 229 210 211 212 165 144 125 131 123 125 125 93 41 84 148 170 161 154 158 176 175 161 176 183 183 171 157 158 155 150 152 146 148 159 160 169 166 165 166 158 158 156 153 154 154 157 156 155 159 157 152 146 141 140 144 146 143 138 132 129 129 146 127 122 129 124 100 211 179 185 144 95 119 135 112 109 107 99 104 56
217 201 182 185 145 98 264 175 189 223 165 140 137 158 164 263 276 152 104 84 29 19 20 131 136 138 160 183 162 164 179 187 176 170 160 160 162 165 160 154 174 171 172 167 166 165 166 161 163 159 154 155 153 155 157 164 163 157 150 145 145 145 150 156 150 147 141 139 129 118 126 134 140 135 112 44 92 91 85 75 87 93 72 60 42 28 37
6 186 166 158 142 175 171 168 151 147 168 143 123 88 94 173 166 116 99 126 140 162 335 352 171 162 166 173 169 178 168 156 156 163 163 159 164 160 171 178 173 170 171 177 181 180 166 166 162 158 155 163 166 166 165 167 166 160 162 153 157 163 158 150 144 146 142 132 126 129 137 144 154 151 145 120 28 32 64 49 87 99 65 41 26 14 5
193 168 137 144 116 100 104 127 124 100 119 138 125 124 92 91 55 102 122 82 352 158 150 151 1 166 155 167 174 173 170 171 167 160 157 157 160 169 181 182 186 186 185 180 173 163 164 166 165 165 166 171 168 171 167 167 163 165 169 165 153 153 154 151 148 146 150 149 152 152 153 156 158 156 145 147 140 143 348 21 66 53 32 20 12 1 354
121 108 99 90 85 105 141 107 65 80 99 119 109 111 55 89 105 85 55 65 25 340 150 155 131 82 130 149 152 132 120 152 157 147 152 165 165 174 192 196 181 158 159 162 165 167 168 171 169 170 178 176 174 174 168 166 169 171 167 163 161 159 161 159 155 158 159 159 158 162 165 160 151 143 142 141 148 145 139 44 9 12 16 8 357 350 347
111 131 113 75 74 101 233 148 164 182 144 102 126 129 112 84 89 106 118 90 107 353 13 47 115 103 79 109 121 131 151 133 127 159 172 177 190 194 173 150 163 162 154 159 167 172 169 168 173 183 188 179 171 173 173 167 165 162 159 150 145 145 149 154 158 159 159 159 159 157 160 158 152 145 146 159 157 149 144 142 140 178 271 305 325 336 0
139 182 106 145 171 174 182 151 117 123 122 128 130 126 128 112 97 91 71 94 88 7 37 54 94 105 105 107 119 99 100 144 168 176 182 201 179 142 145 148 145 153 157 161 173 167 168 174 180 188 197 182 176 179 174 168 165 163 157 155 156 157 160 156 151 156 157 157 162 160 157 150 148 141 154 162 160 160 148 141 158 191 278 273 250 301 324
44 40 55 93 125 130 115 106 105 115 109 56 70 92 122 107 127 120 121 171 294 330 33 21 29 59 116 162 113 130 142 156 176 196 197 164 144 138 134 136 130 135 152 166 174 176 174 178 186 199 207 180 177 178 172 168 170 170 169 169 165 162 162 161 157 152 150 153 156 156 149 145 140 151 163 163 151 143 144 163 190 210 211 258 317 326 323
69 97 101 104 111 122 120 134 150 147 135 151 142 117 108 134 108 54 239 289 346 31 316 332 6 24 74 134 140 150 176 197 195 162 152 155 152 145 138 123 105 87 117 193 203 186 186 191 196 207 201 175 177 176 173 175 178 177 175 171 168 164 159 154 150 148 152 158 164 157 149 143 153 163 165 159 156 154 164 181 188 187 216 244 246 244 279
81 78 97 111 117 105 118 145 118 126 126 116 131 124 67 76 116 251 281 179 136 224 281 236 249 274 249 179 185 156 129 139 147 154 154 157 159 162 157 158 162 192 203 209 191 187 190 198 202 212 184 168 175 177 177 179 174 168 169 169 166 160 157 156 157 158 161 159 164 159 154 155 172 169 169 161 158 165 177 181 187 198 205 207 210 214 233
98 81 79 67 77 96 71 60 112 120 123 126 112 176 178 154 204 247 249 219 227 196 184 192 221 234 233 168 123 101 92 95 109 128 156 168 179 184 184 195 211 216 200 170 176 187 193 193 212 206 158 169 174 182 182 182 174 177 184 170 166 166 164 162 159 164 164 164 159 157 168 167 178 176 162 164 170 179 178 175 190 196 198 199 211 217 234
106 94 75 81 52 45 61 333 147 171 150 173 211 209 184 213 195 207 225 200 122 154 175 223 233 151 154 136 118 114 106 101 101 151 189 204 206 203 204 210 219 221 174 186 179 184 187 202 210 161 168 173 177 182 188 187 186 182 178 172 170 163 165 171 167 161 159 163 167 171 170 180 183 176 176 175 181 180 178 185 188 194 206 210 216 230 218
150 166 177 183 166 168 185 218 215 198 214 240 262 233 212 215 217 242 353 66 28 250 232 237 204 166 139 141 142 135 129 121 172 230 221 218 215 213 208 208 215 216 203 168 177 189 202 208 186 180 177 173 178 179 188 189 191 188 178 170 170 170 174 173 169 170 168 177 179 176 175 179 182 179 180 182 183 181 185 187 194 198 207 218 220 214 223
167 162 150 168 178 173 173 166 176 192 190 203 230 231 232 186 183 210 187 171 204 228 226 198 152 139 145 136 146 162 175 201 222 224 221 210 214 197 179 187 212 229 245 239 215 219 208 200 190 171 165 172 178 188 190 194 192 186 186 180 181 178 177 170 175 179 181 181 175 167 178 186 186 179 180 182 190 192 193 191 194 203 216 222 225 202 209
63 90 65 64 62 84 89 114 151 168 177 190 190 183 187 206 188 176 181 213 230 210 172 141 127 125 143 164 177 187 208 224 232 235 229 199 180 151 159 185 198 219 237 255 235 213 202 197 182 170 169 180 185 192 194 194 197 195 189 182 184 180 176 178 179 178 182 167 162 178 191 184 169 175 179 185 194 199 196 201 203 212 217 226 222 212 211
40 97 89 71 61 75 69 54 67 133 146 153 146 119 99 87 130 254 325 332 323 264 161 130 126 161 204 211 209 215 223 225 227 234 211 145 144 156 176 189 192 216 221 254 241 187 199 187 183 177 179 182 188 193 195 192 194 190 186 186 180 171 164 165 170 167 172 171 162 179 180 175 178 181 180 183 200 209 204 207 215 214 217 221 223 221 220
43 61 71 71 68 75 63 41 29 62 90 76 57 64 72 63 26 22 19 6 358 333 193 180 196 216 220 207 211 229 239 242 239 221 162 161 165 162 193 189 214 191 217 233 164 156 191 182 178 181 192 195 199 198 193 191 188 184 185 179 169 163 169 166 163 167 177 177 184 187 187 175 173 181 190 190 202 210 218 218 216 215 218 222 220 217 216
58 45 54 47 55 55 57 40 41 41 46 85 87 72 37 35 22 35 27 358 346 350 324 239 267 263 246 226 248 257 255 240 225 204 197 187 182 182 217 216 217 209 216 118 138 162 167 174 178 185 193 200 194 196 189 186 184 189 174 164 164 176 185 174 180 174 185 172 177 183 179 175 180 181 190 197 203 216 223 223 222 223 217 219 213 222 222
57 46 31 35 53 34 47 50 47 50 42 45 63 47 358 21 12 16 8 3 354 8 354 341 231 244 261 257 263 272 270 247 221 204 214 193 187 232 272 272 249 238 232 185 156 166 175 176 180 193 198 194 189 188 191 180 177 188 173 160 179 167 173 171 173 178 180 176 183 180 175 183 186 188 191 195 206 215 219 227 225 224 227 228 224 228 230
47 40 34 55 55 42 40 39 41 37 39 41 45 33 24 25 0 30 18 354 329 345 344 340 264 272 260 248 254 266 296 289 214 220 190 144 200 233 243 267 275 170 211 204 192 180 179 184 188 194 200 190 195 188 182 173 182 192 188 182 171 182 178 180 184 180 180 181 184 184 182 183 183 192 194 198 209 215 220 221 223 227 222 227 236 236 238
32 44 53 55 51 43 27 14 18 29 25 39 28 12 351 352 12 353 325 327 328 342 344 340 317 280 299 312 310 306 303 287 254 233 193 200 215 202 225 262 60 200 192 194 194 184 191 195 201 199 195 190 192 189 182 176 185 187 185 178 179 178 179 177 176 185 181 182 175 158 169 174 178 196 196 197 209 216 217 222 227 231 232 229 235 235 236
49 55 53 51 44 31 19 25 31 355 354 295 3 346 320 328 345 356 0 358 353 349 347 343 344 346 341 335 326 309 292 292 262 259 262 253 243 231 234 263 336 319 217 190 190 196 197 205 200 209 195 192 191 186 180 183 189 182 181 176 166 170 170 179 172 165 176 178 181 172 165 163 176 199 199 205 213 213 212 214 218 220 219 221 231 241 246
72 79 66 58 24 10 41 79 46 31 104 286 318 319 317 337 3 26 5 353 349 349 350 339 340 332 326 329 332 306 296 292 277 269 258 279 278 262 242 260 261 221 207 204 201 203 210 201 207 199 198 194 190 183 185 192 194 184 177 172 173 177 171 175 180 178 185 185 181 184 176 170 171 186 192 201 212 217 217 221 222 221 221 217 218 228 241
51 80 95 98 102 89 91 79 166 230 246 266 286 285 58 32 358 353 18 359 334 316 318 304 304 296 293 293 282 271 281 280 267 214 238 268 285 291 302 254 237 203 218 208 215 213 215 206 202 197 196 194 191 186 191 194 196 185 182 173 177 174 176 181 181 180 182 187 188 173 173 181 189 185 192 204 200 202 215 219 222 220 217 222 216 224 233
1 10 26 67 76 80 268 246 259 247 246 250 231 180 116 33 338 324 294 295 299 286 276 279 286 287 289 288 285 282 283 272 256 233 234 236 249 255 81 178 221 223 217 217 218 221 218 210 201 198 195 193 189 189 197 199 195 180 189 192 187 175 183 183 181 188 186 182 180 171 176 184 186 193 195 204 206 208 218 211 216 223 218 222 223 227 232
343 346 347 4 310 307 309 281 265 227 238 122 120 261 307 353 333 315 294 280 254 264 272 275 263 268 267 261 262 290 296 295 278 238 240 247 257 273 288 266 235 227 222 218 221 216 210 205 202 199 197 195 190 194 194 195 197 187 185 189 185 191 184 169 179 180 175 183 163 175 203 201 202 212 210 207 207 208 208 216 226 228 222 224 230 233 236
349 348 336 338 327 316 333 352 24 28 29 20 322 298 295 308 320 299 285 283 282 278 275 267 253 255 255 250 246 231 234 258 301 292 173 216 284 278 257 238 231 226 227 233 230 222 204 202 201 197 196 192 193 196 194 194 179 179 179 167 183 179 174 166 175 178 180 169 179 186 189 189 209 214 212 212 215 210 211 212 222 224 219 221 231 231 234
320 313 307 315 345 3 10 6 7 6 355 344 348 319 318 322 308 294 294 298 300 277 250 248 256 257 253 239 241 241 256 252 234 258 303 1 298 266 254 251 250 244 233 234 225 228 202 197 197 195 192 190 193 194 192 191 186 183 176 179 175 176 180 185 186 180 175 185 187 191 199 197 213 209 213 214 216 215 213 219 222 220 226 224 233 234 234
343 350 3 4 1 358 354 345 334 319 318 330 316 311 326 326 329 321 336 333 321 314 310 305 302 293 280 280 281 278 270 286 286 287 291 294 285 275 264 253 248 240 234 231 224 220 198 192 191 189 187 191 193 187 187 181 157 168 156 183 180 182 181 185 177 173 179 187 192 192 202 208 206 216 211 192 211 219 219 223 225 225 223 228 231 235 234
349 338 312 314 321 309 307 269 255 287 309 301 297 303 322 335 313 314 330 321 328 332 325 320 316 305 304 298 294 303 307 307 302 300 302 297 284 268 260 252 245 244 231 226 210 205 187 187 193 188 189 194 193 193 155 144 144 179 183 166 170 166 161 174 172 187 191 192 197 201 208 215 217 211 209 214 217 222 222 224 227 227 225 230 232 237 238
298 279 266 269 285 295 296 296 288 274 271 293 302 307 309 297 309 311 313 306 314 314 314 322 318 307 299 297 287 287 296 302 303 308 304 301 291 282 282 262 256 251 226 211 195 177 179 188 183 189 191 193 196 189 182 184 178 166 186 191 190 189 173 173 183 189 193 188 198 204 215 220 216 210 209 214 220 222 226 224 228 228 228 230 231 235 241